Location: Eschentzwiller
(47.7125°N, 7.3981°E)
Time: 02:52:24
(UTC+00:00)

Cosmos 1606 Rocket - Pass Details

Date: 27 October 2020
Orbit: 603 x 631 km, 82.5° (Epoch: 01 December)

Event Time Altitude Azimuth Distance (km) Brightness Sun altitude
Rises 17:06:03 0° 183° (S) 2,863 7.2 -8.3°
Reaches altitude 10° 17:08:15 10° 182° (S) 1,967 6.3 -8.7°
Maximum altitude 17:12:36 76° 97° (E) 642 3.5 -9.4°
Drops below altitude 10° 17:17:02 10° 12° (NNE) 2,002 6.0 -10.1°
Sets 17:19:17 0° 11° (NNE) 2,918 6.8 -10.5°
